Powrót do katalogu

ONEWEB-0275

AktywnyŁącznośćPO
NORAD 48993·PAYLOAD·🇬🇧 United Kingdom

Wystrzelony Jul 1, 2021 z Vostochny Cosmodrome

Loading…

Następne Przeloty (najbliższe 24 godziny)

TLE

ŚwieżeSource: CelesTrak SupGP

Epoka: Sep 14, 2026, 20:02 UTC

1 48993C 21060AC  26257.83490000  .00000392  00000+0  10276-2 0  2576
2 48993  87.9153 210.9762 0002832  89.2214 294.8564 13.16596410    11

Śledź ONEWEB-0275 w czasie rzeczywistym z AllMySat

Download on the App Store